Find Starlink 31368

NORAD ID: 58970 Int'l Des: 2024-031 Owner: SPXS Country: US Constellation: starlink operational
LEOCIRCULAR

Live-Position

3D-Globus wird geladen...

Über Starlink 31368

Beschreibung wird geladen...

Nächste Überflüge

Passes for default location (London). Set your location on the main map for personalized predictions.

Höhenverlauf

Loading altitude history...

Zweizeiliger Elementsatz

1 58970U 24031F 26125.16547024 .00001865 00000-0 75082-4 0 9990
2 58970 53.1596 34.1080 0000890 51.9557 308.1524 15.30201287125184
Epoch: 5. Mai 2026 • Age: 18 hours

Aktueller Status

Höhe 476.6 km
Geschwindigkeit 7.63 km/s
Subsatellitenpunkt -0.70°S, 17.34°E
Startdatum 15. Feb. 2024
Alter 2.2 years
Typ internet

Technische Details

Klassifizierung Payload
Masse 730.00 kg
Trockenmasse 700.00 kg
Gesamtmasse 730.00 kg
Länge 0.30 m
Durchmesser 4.10 m
Spannweite 29.00 m
Form Box + pan
Hersteller SPXS
Bus-Typ Starlink V2M
Phasenstatus In Orbit
Besitzer/Staat SPXS/US

Most Searched